Volver al catálogo

DELTA 1 DEB

ActivoSSO
NORAD 14509·DEBRIS·🇺🇸 United States

Lanzado Jul 29, 1976 desde Vandenberg Space Force Base

Loading…

Próximos Pases (próximas 24 horas)

TLE

ActualizadoSource: Space-Track

Época: Sep 14, 2026, 09:06 UTC

1 14509U 76077EQ  26257.37970414  .00000038  00000-0  82676-3 0  9996
2 14509 102.3795 219.2817 0158055  92.2586  60.7974 12.12387943943452

Sigue DELTA 1 DEB en tiempo real con AllMySat

Download on the App Store